Location: Altleiningen
(49.5078°N, 8.0741°E)
Time: 11:38:20
(UTC+00:00)

OBJECT-B - Pass Details

Date: 03 March 2021
Orbit: 414 x 427 km, 97.0° (Epoch: 11 April)

Event Time Altitude Azimuth Distance (km) Brightness Sun altitude
Exits shadow 19:38:15 42° 294° (WNW) 616 2.0 -23.9°
Drops below altitude 10° 19:40:51 10° 337° (NNW) 1,515 4.1 -24.3°
Sets 19:42:55 0° 343° (NNW) 2,382 5.1 -24.6°
